Thessaloniki, Greece

4:57 PM EEST on May 26, 2018 (GMT +0300)
Historical Center | | Change Station

Elev 92 ft 40.63 °N, 22.95 °E | Updated 12 minutes ago

Partly Cloudy
Partly Cloudy
86.4 °F
Feels Like 85 °F
N
7.0
Wind Variable Wind from WSW
Gusts 12.0 mph

Today
High -- | Low -- °F
--% Chance of Precip.
Yesterday
High -- | Low -- °F
Precip. -- in
Pressure 29.95 in
Visibility 6.2 miles
Clouds Few 1800 ft
Scattered Clouds 2500 ft
Heat Index 85 °F
Dew Point 57 °F
Humidity 37%
Rainfall 0.00 in
Snow Depth Not available.
6:02 AM 8:48 PM
Waxing Gibbous, 91% visible
METAR LGTS 261350Z 28010KT 9999 FEW018TCU SCT025 30/13 Q1014 NOSIG
Pressure 29.95 in
Visibility 6.2 miles
Clouds Few 1800 ft
Scattered Clouds 2500 ft
Heat Index 85 °F
Dew Point 57 °F
Humidity 37%
Rainfall 0.00 in
Snow Depth Not available.
6:02 AM 8:48 PM
Waxing Gibbous, 91% visible
METAR LGTS 261350Z 28010KT 9999 FEW018TCU SCT025 30/13 Q1014 NOSIG

Get Severe Weather Alerts

Thanks for signing up!

Be on the lookout for a verification email in your inbox.

You'll start receiving the daily forecast at 6 AM.

×

10-Day Weather Forecast

×

Almanac

Astronomy

May. 26, 2018 Rise Set
Actual Time
Civil Twilight
Nautical Twilight
Astronomical Twilight
Moon
Length of Visible Light
Length of Day
Tomorrow will be .
, % of the Moon is Illuminated

Today's Extremes

Country Highs Country Lows

Community

WunderPhotos

Category 6

Welcome to Category 6. This is the collective home for Weather Underground's featured writeups by Dr. Jeff Masters (right), Bob Henson (left), Chris Burt, and other regular contributors.

Nearby

Air Quality

  Air Quality AQ Index Pollutant
Not available.

Snow Depth

Station Depth Elevation

Earthquake Activity

City Distance Mag. Time & Date
Minimum magnitude displayed is 2.5.

Coastal Water Temperatures

Place Temperature

Stations

Nearby Weather Stations

Station Location Temp. Windchill Dew Point Humidity Wind Precip. Elev Updated Type